QPF
0.19 0.15 0.13 0.09 0.07 0.06 0.06 0.07 0.07 0.06 0.08 0.06 0.06 0.06 0.06 0.07 0.07 0.07 0.07 0.07 0.07 0.11 0.15 0.13 0.17 0.26 0.18 0.10 0.06 0.05 0.06 0.06 0.05 0.05 0.05 0.04 0.03 0.04 0.05 0.05 0.07 0.08 0.06
0.19 0.16 0.13 0.09 0.07 0.07 0.08 0.08 0.08 0.09 0.08 0.06 0.05 0.05 0.04 0.05 0.06 0.06 0.07 0.06 0.08 0.09 0.10 0.10 0.20 0.26 0.13 0.11 0.09 0.06 0.07 0.07 0.06 0.05 0.03 0.03 0.03 0.02 0.03 0.03 0.05 0.06 0.06
0.17 0.18 0.16 0.12 0.09 0.09 0.08 0.07 0.07 0.07 0.06 0.07 0.07 0.05 0.04 0.05 0.06 0.07 0.07 0.05 0.06 0.06 0.06 0.08 0.09 0.10 0.08 0.10 0.08 0.06 0.06 0.05 0.04 0.04 0.05 0.05 0.03 0.03 0.02 0.03 0.05 0.06 0.06
0.15 0.12 0.11 0.09 0.08 0.08 0.06 0.06 0.06 0.07 0.07 0.07 0.07 0.05 0.05 0.05 0.07 0.08 0.07 0.05 0.05 0.06 0.04 0.04 0.03 0.04 0.06 0.07 0.07 0.07 0.07 0.06 0.05 0.05 0.06 0.06 0.05 0.05 0.07 0.10 0.08 0.06 0.06
0.13 0.12 0.10 0.08 0.07 0.08 0.07 0.08 0.10 0.08 0.07 0.07 0.06 0.06 0.06 0.05 0.05 0.06 0.07 0.06 0.05 0.06 0.05 0.04 0.04 0.04 0.04 0.05 0.05 0.05 0.06 0.06 0.06 0.07 0.08 0.10 0.11 0.13 0.14 0.14 0.09 0.08 0.10
0.11 0.12 0.10 0.08 0.06 0.05 0.04 0.04 0.06 0.07 0.07 0.07 0.06 0.06 0.06 0.06 0.05 0.05 0.06 0.07 0.06 0.06 0.05 0.03 0.04 0.04 0.04 0.03 0.03 0.02 0.03 0.03 0.03 0.05 0.07 0.08 0.11 0.11 0.09 0.09 0.07 0.07 0.07
0.10 0.09 0.07 0.05 0.04 0.04 0.04 0.04 0.04 0.04 0.05 0.06 0.05 0.03 0.04 0.03 0.04 0.05 0.06 0.07 0.07 0.07 0.06 0.04 0.04 0.04 0.03 0.03 0.03 0.03 0.04 0.05 0.04 0.05 0.06 0.05 0.07 0.06 0.05 0.06 0.06 0.07 0.05
0.08 0.06 0.04 0.03 0.02 0.03 0.03 0.03 0.03 0.02 0.03 0.04 0.05 0.04 0.03 0.03 0.03 0.04 0.06 0.06 0.08 0.08 0.08 0.08 0.06 0.06 0.03 0.03 0.03 0.03 0.04 0.06 0.05 0.06 0.06 0.06 0.06 0.04 0.04 0.04 0.04 0.06 0.04
0.09 0.05 0.04 0.03 0.02 0.03 0.03 0.03 0.03 0.02 0.03 0.05 0.06 0.05 0.04 0.03 0.03 0.04 0.04 0.04 0.06 0.07 0.06 0.08 0.10 0.09 0.07 0.05 0.04 0.03 0.03 0.05 0.07 0.09 0.07 0.07 0.05 0.05 0.04 0.03 0.04 0.05 0.05
0.06 0.04 0.04 0.03 0.03 0.03 0.03 0.03 0.02 0.03 0.04 0.06 0.08 0.11 0.15 0.09 0.04 0.03 0.02 0.04 0.07 0.07 0.05 0.05 0.07 0.08 0.07 0.05 0.04 0.03 0.03 0.05 0.08 0.10 0.09 0.09 0.09 0.07 0.07 0.05 0.04 0.05 0.05
0.03 0.02 0.03 0.03 0.03 0.02 0.02 0.02 0.03 0.04 0.05 0.07 0.09 0.18 0.28 0.24 0.10 0.06 0.03 0.03 0.05 0.05 0.06 0.06 0.06 0.07 0.07 0.06 0.04 0.04 0.05 0.07 0.11 0.12 0.11 0.08 0.08 0.07 0.08 0.07 0.06 0.05 0.06
0.02 0.02 0.02 0.02 0.03 0.03 0.01 0.02 0.03 0.03 0.05 0.07 0.10 0.13 0.11 0.13 0.10 0.07 0.06 0.05 0.05 0.07 0.08 0.09 0.09 0.08 0.08 0.09 0.08 0.06 0.07 0.08 0.12 0.11 0.09 0.07 0.07 0.06 0.06 0.05 0.06 0.06 0.07
0.03 0.02 0.02 0.03 0.06 0.05 0.04 0.03 0.04 0.04 0.05 0.06 0.08 0.08 0.08 0.10 0.07 0.07 0.08 0.07 0.10 0.12 0.14 0.16 0.15 0.15 0.13 0.09 0.09 0.09 0.09 0.09 0.11 0.12 0.09 0.05 0.05 0.04 0.04 0.04 0.04 0.06 0.06
0.03 0.04 0.03 0.03 0.05 0.06 0.05 0.04 0.03 0.04 0.04 0.04 0.07 0.06 0.06 0.07 0.07 0.07 0.09 0.09 0.09 0.12 0.14 0.15 0.19 0.21 0.16 0.11 0.09 0.09 0.11 0.10 0.11 0.15 0.13 0.07 0.05 0.05 0.05 0.04 0.05 0.05 0.06
0.01 0.03 0.04 0.03 0.03 0.05 0.06 0.05 0.03 0.04 0.03 0.03 0.05 0.05 0.06 0.05 0.06 0.07 0.08 0.07 0.07 0.08 0.12 0.16 0.17 0.21 0.19 0.15 0.10 0.09 0.11 0.09 0.10 0.13 0.12 0.11 0.09 0.07 0.05 0.05 0.05 0.05 0.07
0.01 0.02 0.03 0.03 0.03 0.04 0.04 0.04 0.04 0.03 0.04 0.03 0.04 0.03 0.04 0.04 0.05 0.06 0.06 0.08 0.08 0.08 0.10 0.13 0.13 0.18 0.18 0.17 0.12 0.11 0.09 0.10 0.09 0.11 0.10 0.09 0.08 0.07 0.06 0.06 0.05 0.05 0.06
0.01 0.01 0.02 0.03 0.04 0.04 0.04 0.03 0.02 0.02 0.02 0.02 0.03 0.04 0.04 0.04 0.06 0.07 0.08 0.09 0.10 0.12 0.11 0.09 0.09 0.13 0.13 0.13 0.13 0.10 0.10 0.08 0.08 0.10 0.10 0.09 0.08 0.06 0.06 0.05 0.05 0.05 0.06
0.01 0.01 0.01 0.01 0.02 0.02 0.03 0.03 0.02 0.02 0.02 0.03 0.04 0.04 0.04 0.04 0.05 0.07 0.08 0.09 0.09 0.10 0.09 0.08 0.10 0.12 0.13 0.13 0.13 0.12 0.10 0.09 0.09 0.11 0.11 0.10 0.08 0.06 0.06 0.04 0.04 0.04 0.04
0.01 0.01 0.01 0.01 0.01 0.02 0.03 0.03 0.03 0.03 0.02 0.02 0.03 0.03 0.03 0.03 0.04 0.06 0.08 0.10 0.09 0.08 0.08 0.08 0.11 0.12 0.13 0.13 0.10 0.07 0.05 0.04 0.04 0.06 0.07 0.08 0.09 0.08 0.07 0.06 0.05 0.04 0.03
0.01 0.01 0.01 0.01 0.02 0.03 0.03 0.03 0.03 0.03 0.02 0.02 0.02 0.03 0.03 0.05 0.04 0.04 0.07 0.06 0.07 0.08 0.09 0.09 0.09 0.10 0.11 0.09 0.06 0.06 0.05 0.04 0.05 0.05 0.05 0.07 0.08 0.07 0.07 0.08 0.10 0.07 0.06
0.01 0.01 0.01 0.01 0.02 0.04 0.04 0.03 0.04 0.04 0.04 0.03 0.03 0.04 0.06 0.06 0.05 0.05 0.06 0.07 0.06 0.08 0.09 0.08 0.10 0.10 0.10 0.09 0.09 0.09 0.07 0.06 0.07 0.06 0.05 0.07 0.07 0.06 0.06 0.06 0.08 0.08 0.07
0.01 0.01 0.00 0.01 0.03 0.03 0.04 0.04 0.04 0.05 0.04 0.04 0.03 0.06 0.07 0.07 0.06 0.06 0.08 0.07 0.07 0.09 0.10 0.11 0.12 0.14 0.13 0.11 0.12 0.12 0.10 0.10 0.09 0.05 0.05 0.05 0.05 0.05 0.05 0.05 0.08 0.09 0.07
0.00 0.00 0.01 0.01 0.02 0.03 0.04 0.04 0.05 0.06 0.06 0.05 0.04 0.04 0.05 0.06 0.06 0.07 0.08 0.09 0.10 0.10 0.12 0.12 0.11 0.12 0.11 0.13 0.12 0.11 0.10 0.09 0.08 0.06 0.05 0.05 0.04 0.05 0.05 0.04 0.04 0.04 0.04
0.00 0.00 0.01 0.02 0.03 0.03 0.04 0.05 0.05 0.04 0.04 0.04 0.04 0.04 0.04 0.05 0.08 0.09 0.10 0.10 0.10 0.11 0.12 0.10 0.12 0.12 0.11 0.10 0.11 0.09 0.09 0.09 0.09 0.08 0.06 0.05 0.05 0.05 0.03 0.02 0.01 0.02 0.02
0.01 0.01 0.01 0.02 0.02 0.02 0.02 0.04 0.04 0.03 0.03 0.04 0.04 0.04 0.05 0.06 0.07 0.08 0.09 0.08 0.08 0.11 0.12 0.11 0.12 0.10 0.09 0.08 0.07 0.06 0.08 0.10 0.11 0.11 0.08 0.07 0.07 0.06 0.04 0.03 0.02 0.02 0.03
0.01 0.01 0.01 0.01 0.01 0.01 0.02 0.03 0.04 0.04 0.05 0.05 0.05 0.04 0.05 0.06 0.06 0.08 0.10 0.07 0.08 0.11 0.11 0.09 0.09 0.09 0.10 0.08 0.05 0.06 0.08 0.09 0.11 0.12 0.10 0.09 0.09 0.07 0.06 0.05 0.05 0.03 0.04
MSLP
1008.88 1008.52 1008.26 1008.18 1008.32 1008.64 1009.08 1009.57 1010.04 1010.45 1010.78 1011.08 1011.37 1011.69 1012.07 1012.50 1012.95 1013.38 1013.75 1014.03 1014.22 1014.33 1014.39 1014.44 1014.49 1014.57 1014.66 1014.75 1014.82 1014.87 1014.89 1014.91 1014.94 1015.02 1015.16 1015.34 1015.56 1015.79 1015.98 1016.14 1016.24 1016.31 1016.37
1009.01 1008.74 1008.57 1008.58 1008.76 1009.08 1009.48 1009.91 1010.29 1010.62 1010.91 1011.18 1011.47 1011.82 1012.24 1012.70 1013.17 1013.60 1013.95 1014.20 1014.36 1014.45 1014.50 1014.55 1014.62 1014.71 1014.81 1014.90 1014.97 1015.02 1015.03 1015.05 1015.09 1015.19 1015.34 1015.54 1015.78 1016.01 1016.22 1016.37 1016.47 1016.54 1016.60
1009.01 1008.85 1008.80 1008.91 1009.16 1009.51 1009.90 1010.28 1010.60 1010.86 1011.09 1011.32 1011.60 1011.95 1012.37 1012.83 1013.29 1013.70 1014.02 1014.25 1014.38 1014.46 1014.52 1014.59 1014.69 1014.80 1014.93 1015.04 1015.11 1015.15 1015.16 1015.17 1015.20 1015.30 1015.46 1015.67 1015.92 1016.16 1016.38 1016.54 1016.65 1016.73 1016.80
1008.93 1008.88 1008.96 1009.20 1009.55 1009.96 1010.37 1010.72 1011.00 1011.20 1011.38 1011.57 1011.81 1012.14 1012.53 1012.97 1013.39 1013.76 1014.04 1014.23 1014.36 1014.44 1014.52 1014.62 1014.76 1014.92 1015.07 1015.19 1015.26 1015.29 1015.28 1015.27 1015.28 1015.37 1015.52 1015.74 1015.99 1016.24 1016.47 1016.65 1016.78 1016.88 1016.98
1008.78 1008.86 1009.09 1009.47 1009.95 1010.44 1010.89 1011.25 1011.49 1011.66 1011.79 1011.93 1012.14 1012.42 1012.77 1013.15 1013.52 1013.84 1014.08 1014.24 1014.36 1014.45 1014.57 1014.71 1014.90 1015.09 1015.27 1015.39 1015.45 1015.45 1015.41 1015.36 1015.35 1015.41 1015.54 1015.75 1016.00 1016.27 1016.51 1016.71 1016.87 1017.01 1017.14
1008.62 1008.83 1009.21 1009.73 1010.33 1010.91 1011.42 1011.79 1012.03 1012.17 1012.27 1012.38 1012.55 1012.79 1013.09 1013.42 1013.73 1013.99 1014.18 1014.32 1014.43 1014.55 1014.70 1014.89 1015.11 1015.33 1015.52 1015.64 1015.67 1015.63 1015.54 1015.44 1015.39 1015.41 1015.53 1015.72 1015.97 1016.25 1016.51 1016.73 1016.93 1017.10 1017.27
1008.49 1008.81 1009.32 1009.96 1010.67 1011.33 1011.87 1012.27 1012.51 1012.65 1012.73 1012.82 1012.97 1013.18 1013.44 1013.72 1013.98 1014.20 1014.36 1014.48 1014.59 1014.72 1014.90 1015.12 1015.37 1015.61 1015.80 1015.89 1015.89 1015.80 1015.65 1015.51 1015.41 1015.39 1015.48 1015.67 1015.91 1016.19 1016.47 1016.72 1016.94 1017.15 1017.35
1008.41 1008.82 1009.41 1010.14 1010.91 1011.61 1012.18 1012.59 1012.84 1012.98 1013.07 1013.16 1013.31 1013.51 1013.76 1014.01 1014.24 1014.42 1014.56 1014.67 1014.78 1014.92 1015.12 1015.36 1015.62 1015.86 1016.03 1016.09 1016.04 1015.90 1015.70 1015.51 1015.37 1015.33 1015.41 1015.58 1015.82 1016.10 1016.39 1016.65 1016.90 1017.12 1017.35
1008.41 1008.86 1009.50 1010.25 1011.03 1011.73 1012.29 1012.68 1012.93 1013.08 1013.18 1013.31 1013.48 1013.70 1013.95 1014.21 1014.43 1014.60 1014.72 1014.82 1014.93 1015.08 1015.28 1015.52 1015.77 1015.99 1016.13 1016.16 1016.07 1015.89 1015.66 1015.43 1015.27 1015.22 1015.28 1015.45 1015.69 1015.97 1016.26 1016.53 1016.77 1017.00 1017.23
1008.48 1008.94 1009.57 1010.29 1011.02 1011.67 1012.18 1012.54 1012.77 1012.93 1013.06 1013.23 1013.44 1013.70 1013.99 1014.26 1014.48 1014.65 1014.77 1014.86 1014.96 1015.11 1015.30 1015.53 1015.77 1015.96 1016.07 1016.07 1015.95 1015.74 1015.49 1015.25 1015.09 1015.03 1015.10 1015.27 1015.51 1015.79 1016.07 1016.33 1016.56 1016.77 1016.98
1008.61 1009.05 1009.63 1010.28 1010.92 1011.48 1011.91 1012.21 1012.42 1012.58 1012.75 1012.96 1013.22 1013.53 1013.85 1014.15 1014.39 1014.57 1014.68 1014.76 1014.86 1014.98 1015.16 1015.37 1015.58 1015.75 1015.83 1015.81 1015.67 1015.46 1015.21 1014.98 1014.82 1014.77 1014.85 1015.02 1015.27 1015.54 1015.81 1016.05 1016.25 1016.43 1016.61
1008.79 1009.19 1009.69 1010.24 1010.77 1011.22 1011.56 1011.80 1011.97 1012.13 1012.32 1012.57 1012.89 1013.24 1013.60 1013.92 1014.18 1014.36 1014.47 1014.54 1014.62 1014.72 1014.87 1015.05 1015.24 1015.38 1015.45 1015.41 1015.28 1015.07 1014.83 1014.62 1014.48 1014.45 1014.53 1014.70 1014.95 1015.21 1015.46 1015.68 1015.86 1016.01 1016.15
1008.96 1009.32 1009.76 1010.21 1010.63 1010.97 1011.22 1011.40 1011.54 1011.70 1011.91 1012.19 1012.53 1012.92 1013.30 1013.63 1013.90 1014.07 1014.18 1014.24 1014.30 1014.38 1014.50 1014.66 1014.82 1014.94 1014.99 1014.95 1014.82 1014.62 1014.40 1014.21 1014.08 1014.05 1014.14 1014.31 1014.54 1014.79 1015.03 1015.23 1015.38 1015.51 1015.62
1009.10 1009.44 1009.82 1010.20 1010.53 1010.79 1010.98 1011.11 1011.24 1011.39 1011.61 1011.90 1012.25 1012.64 1013.02 1013.36 1013.61 1013.78 1013.87 1013.92 1013.97 1014.03 1014.13 1014.26 1014.39 1014.49 1014.53 1014.49 1014.36 1014.18 1013.97 1013.77 1013.65 1013.61 1013.68 1013.83 1014.04 1014.27 1014.50 1014.69 1014.84 1014.95 1015.05
1009.14 1009.49 1009.85 1010.19 1010.48 1010.70 1010.86 1010.98 1011.10 1011.25 1011.47 1011.75 1012.10 1012.46 1012.82 1013.13 1013.37 1013.52 1013.61 1013.65 1013.68 1013.73 1013.82 1013.92 1014.03 1014.11 1014.14 1014.09 1013.96 1013.77 1013.55 1013.35 1013.19 1013.13 1013.15 1013.26 1013.44 1013.65 1013.86 1014.06 1014.21 1014.34 1014.45
1009.07 1009.44 1009.81 1010.16 1010.45 1010.68 1010.85 1010.99 1011.13 1011.29 1011.49 1011.75 1012.06 1012.38 1012.70 1012.97 1013.18 1013.31 1013.40 1013.44 1013.48 1013.53 1013.60 1013.68 1013.77 1013.83 1013.84 1013.78 1013.63 1013.43 1013.18 1012.94 1012.74 1012.61 1012.57 1012.62 1012.75 1012.92 1013.12 1013.32 1013.50 1013.66 1013.80
1008.87 1009.28 1009.69 1010.07 1010.40 1010.68 1010.90 1011.08 1011.24 1011.41 1011.61 1011.83 1012.08 1012.35 1012.60 1012.83 1013.01 1013.14 1013.23 1013.29 1013.34 1013.40 1013.47 1013.54 1013.61 1013.65 1013.64 1013.55 1013.38 1013.15 1012.87 1012.58 1012.31 1012.10 1011.97 1011.93 1011.98 1012.11 1012.28 1012.48 1012.69 1012.89 1013.08
1008.55 1009.01 1009.47 1009.90 1010.29 1010.64 1010.92 1011.17 1011.37 1011.55 1011.72 1011.90 1012.09 1012.29 1012.49 1012.67 1012.83 1012.96 1013.07 1013.16 1013.23 1013.31 1013.38 1013.45 1013.51 1013.53 1013.49 1013.38 1013.19 1012.93 1012.61 1012.26 1011.92 1011.61 1011.38 1011.23 1011.19 1011.24 1011.37 1011.56 1011.78 1012.03 1012.27
1008.15 1008.65 1009.15 1009.64 1010.10 1010.51 1010.88 1011.18 1011.42 1011.61 1011.77 1011.90 1012.03 1012.16 1012.30 1012.44 1012.59 1012.74 1012.87 1013.00 1013.11 1013.21 1013.30 1013.37 1013.41 1013.41 1013.36 1013.24 1013.04 1012.76 1012.41 1012.01 1011.60 1011.20 1010.85 1010.59 1010.43 1010.38 1010.44 1010.58 1010.80 1011.06 1011.34
1007.71 1008.23 1008.76 1009.30 1009.81 1010.30 1010.73 1011.09 1011.37 1011.57 1011.70 1011.79 1011.86 1011.93 1012.02 1012.13 1012.28 1012.44 1012.62 1012.79 1012.94 1013.07 1013.17 1013.25 1013.28 1013.28 1013.23 1013.11 1012.91 1012.64 1012.29 1011.86 1011.39 1010.91 1010.46 1010.07 1009.78 1009.60 1009.55 1009.62 1009.79 1010.03 1010.32
1007.24 1007.78 1008.33 1008.90 1009.46 1010.00 1010.49 1010.90 1011.21 1011.41 1011.52 1011.57 1011.59 1011.61 1011.66 1011.76 1011.91 1012.10 1012.31 1012.52 1012.72 1012.87 1012.99 1013.07 1013.11 1013.11 1013.07 1012.97 1012.81 1012.57 1012.24 1011.83 1011.33 1010.80 1010.25 1009.74 1009.30 1008.98 1008.79 1008.74 1008.82 1009.00 1009.25
1006.75 1007.30 1007.87 1008.46 1009.06 1009.65 1010.18 1010.63 1010.96 1011.18 1011.27 1011.29 1011.26 1011.24 1011.26 1011.35 1011.51 1011.73 1011.98 1012.23 1012.45 1012.63 1012.77 1012.85 1012.90 1012.91 1012.90 1012.85 1012.74 1012.57 1012.30 1011.92 1011.44 1010.87 1010.26 1009.64 1009.06 1008.58 1008.23 1008.03 1007.97 1008.04 1008.22
1006.21 1006.78 1007.37 1007.99 1008.63 1009.26 1009.84 1010.32 1010.68 1010.90 1010.99 1010.98 1010.93 1010.88 1010.88 1010.97 1011.13 1011.37 1011.65 1011.93 1012.18 1012.38 1012.52 1012.61 1012.67 1012.71 1012.73 1012.74 1012.71 1012.62 1012.44 1012.13 1011.70 1011.13 1010.48 1009.77 1009.08 1008.44 1007.92 1007.54 1007.33 1007.26 1007.32
1005.58 1006.18 1006.81 1007.47 1008.16 1008.83 1009.46 1009.98 1010.37 1010.61 1010.70 1010.69 1010.62 1010.56 1010.55 1010.63 1010.81 1011.06 1011.36 1011.66 1011.93 1012.14 1012.29 1012.39 1012.46 1012.52 1012.58 1012.66 1012.71 1012.72 1012.63 1012.42 1012.05 1011.52 1010.86 1010.10 1009.31 1008.55 1007.87 1007.32 1006.93 1006.70 1006.63
1004.81 1005.47 1006.15 1006.87 1007.61 1008.35 1009.03 1009.61 1010.04 1010.30 1010.41 1010.40 1010.33 1010.27 1010.26 1010.34 1010.53 1010.80 1011.11 1011.43 1011.72 1011.94 1012.09 1012.20 1012.28 1012.36 1012.47 1012.59 1012.73 1012.82 1012.83 1012.72 1012.43 1011.96 1011.32 1010.55 1009.70 1008.84 1008.04 1007.34 1006.79 1006.40 1006.17
1003.90 1004.62 1005.37 1006.15 1006.96 1007.77 1008.51 1009.15 1009.63 1009.94 1010.08 1010.09 1010.04 1009.98 1009.98 1010.08 1010.28 1010.56 1010.90 1011.24 1011.54 1011.78 1011.94 1012.05 1012.14 1012.24 1012.37 1012.54 1012.72 1012.89 1012.98 1012.95 1012.74 1012.34 1011.75 1010.99 1010.13 1009.22 1008.34 1007.54 1006.86 1006.33 1005.96
Thickness
5816 5816 5813 5810 5808 5807 5805 5803 5801 5799 5797 5795 5794 5792 5791 5790 5789 5787 5786 5785 5784 5782 5781 5780 5779 5778 5778 5777 5777 5776 5776 5776 5776 5775 5774 5773 5772 5771 5770 5769 5768 5767 5766
5821 5817 5812 5810 5807 5805 5804 5802 5800 5798 5796 5795 5793 5791 5790 5789 5787 5786 5784 5783 5782 5781 5780 5779 5778 5777 5777 5776 5776 5775 5775 5775 5775 5774 5773 5773 5772 5770 5770 5769 5768 5767 5766
5822 5816 5812 5809 5807 5805 5803 5801 5799 5797 5795 5794 5792 5790 5789 5788 5786 5785 5784 5782 5781 5780 5780 5778 5777 5777 5776 5775 5775 5774 5774 5774 5774 5773 5773 5772 5772 5771 5770 5768 5767 5766 5765
5823 5817 5812 5808 5806 5804 5802 5800 5798 5796 5795 5793 5791 5790 5788 5787 5786 5784 5783 5782 5781 5780 5779 5777 5777 5776 5775 5775 5775 5774 5774 5774 5773 5773 5773 5773 5773 5771 5770 5768 5766 5765 5764
5823 5817 5811 5808 5805 5803 5801 5799 5797 5795 5794 5792 5791 5789 5788 5787 5785 5784 5783 5781 5780 5779 5778 5777 5776 5775 5775 5774 5774 5774 5774 5774 5773 5773 5774 5774 5773 5771 5769 5768 5766 5765 5764
5821 5816 5811 5807 5805 5802 5800 5798 5797 5795 5793 5791 5790 5789 5788 5786 5785 5784 5782 5781 5780 5779 5777 5776 5775 5775 5774 5774 5774 5774 5773 5773 5773 5773 5775 5775 5773 5771 5769 5767 5766 5765 5763
5820 5816 5811 5807 5804 5802 5800 5798 5796 5795 5793 5791 5790 5788 5787 5786 5785 5783 5782 5781 5780 5778 5777 5776 5775 5774 5774 5773 5773 5773 5773 5773 5773 5774 5775 5775 5773 5771 5769 5768 5767 5765 5763
5823 5817 5811 5808 5805 5802 5800 5798 5796 5794 5793 5791 5789 5788 5786 5785 5784 5784 5782 5781 5780 5778 5777 5775 5775 5774 5773 5773 5773 5773 5773 5772 5773 5775 5775 5774 5772 5771 5769 5768 5766 5764 5763
5825 5819 5813 5809 5805 5802 5800 5798 5795 5794 5792 5791 5789 5787 5786 5785 5784 5783 5782 5781 5780 5778 5777 5776 5774 5773 5773 5773 5773 5773 5773 5772 5772 5774 5774 5773 5771 5770 5769 5767 5766 5764 5762
5823 5820 5816 5812 5808 5804 5800 5798 5796 5794 5792 5791 5789 5787 5786 5785 5784 5783 5782 5781 5780 5778 5777 5776 5775 5774 5773 5773 5773 5773 5773 5773 5773 5773 5772 5771 5771 5769 5768 5766 5765 5764 5762
5820 5819 5818 5814 5811 5808 5805 5801 5797 5794 5792 5791 5789 5788 5787 5786 5786 5784 5783 5782 5780 5779 5778 5776 5775 5774 5773 5773 5773 5773 5773 5773 5773 5773 5772 5771 5770 5769 5767 5766 5765 5763 5762
5816 5818 5818 5816 5813 5810 5808 5803 5800 5797 5795 5793 5791 5790 5789 5789 5788 5787 5785 5783 5781 5780 5778 5777 5776 5775 5774 5774 5775 5774 5774 5774 5774 5773 5772 5771 5770 5769 5767 5765 5764 5762 5761
5819 5818 5818 5816 5813 5811 5808 5805 5802 5800 5798 5795 5794 5792 5791 5790 5789 5787 5786 5784 5782 5781 5780 5779 5777 5776 5776 5776 5777 5777 5776 5776 5776 5774 5773 5771 5770 5768 5767 5765 5763 5762 5760
5819 5817 5817 5816 5812 5810 5808 5805 5803 5801 5799 5798 5795 5794 5793 5791 5789 5788 5787 5786 5784 5783 5782 5781 5779 5778 5778 5778 5778 5778 5777 5776 5776 5774 5772 5771 5769 5768 5766 5764 5763 5762 5760
5818 5817 5817 5815 5811 5809 5806 5804 5803 5801 5800 5799 5797 5795 5793 5791 5789 5789 5787 5786 5785 5784 5783 5782 5780 5780 5779 5778 5778 5778 5777 5776 5775 5774 5772 5770 5769 5767 5765 5764 5762 5761 5759
5819 5818 5818 5814 5812 5808 5805 5803 5802 5802 5800 5799 5797 5795 5793 5792 5790 5789 5787 5786 5785 5784 5783 5782 5781 5780 5779 5778 5777 5777 5777 5776 5775 5774 5772 5770 5768 5767 5765 5763 5762 5760 5759
5820 5819 5817 5815 5812 5807 5804 5803 5802 5802 5800 5798 5796 5795 5793 5792 5790 5789 5787 5785 5785 5784 5783 5782 5781 5780 5778 5778 5776 5776 5776 5775 5774 5773 5771 5769 5767 5766 5765 5763 5761 5760 5758
5822 5818 5816 5816 5811 5807 5804 5802 5802 5801 5800 5798 5796 5794 5792 5791 5790 5788 5786 5785 5785 5784 5783 5781 5780 5777 5776 5776 5775 5774 5775 5774 5774 5773 5771 5769 5767 5766 5765 5763 5761 5759 5757
5822 5818 5815 5814 5811 5808 5805 5803 5801 5800 5799 5798 5796 5794 5792 5790 5788 5786 5785 5784 5783 5782 5781 5780 5778 5776 5774 5773 5773 5773 5773 5773 5773 5772 5770 5769 5768 5766 5765 5763 5761 5759 5757
5823 5819 5816 5813 5811 5809 5806 5802 5800 5799 5798 5797 5795 5793 5791 5789 5787 5785 5784 5783 5782 5780 5779 5777 5776 5775 5773 5772 5772 5771 5772 5772 5772 5770 5770 5769 5768 5768 5767 5764 5761 5759 5757
5822 5818 5815 5812 5810 5807 5803 5800 5797 5795 5796 5796 5795 5793 5790 5787 5785 5784 5783 5782 5780 5779 5777 5776 5774 5772 5770 5771 5766 5764 5768 5771 5770 5770 5770 5769 5768 5768 5767 5765 5762 5760 5757
5821 5817 5815 5812 5810 5807 5804 5802 5800 5798 5796 5796 5794 5792 5789 5787 5785 5784 5781 5780 5779 5777 5775 5774 5772 5769 5768 5769 5763 5756 5754 5757 5764 5769 5768 5767 5767 5767 5766 5765 5763 5760 5758
5822 5819 5816 5812 5810 5807 5805 5802 5800 5797 5794 5793 5790 5789 5788 5786 5784 5782 5781 5779 5778 5777 5774 5772 5771 5767 5764 5766 5766 5758 5750 5747 5754 5761 5764 5765 5765 5764 5764 5764 5763 5760 5759
5825 5822 5817 5813 5810 5807 5805 5800 5796 5791 5788 5788 5789 5788 5787 5785 5783 5782 5780 5778 5776 5775 5773 5772 5771 5768 5765 5761 5763 5764 5761 5758 5750 5749 5757 5761 5762 5761 5761 5763 5763 5761 5760
5827 5823 5818 5813 5809 5806 5803 5799 5795 5792 5791 5790 5790 5787 5785 5783 5782 5781 5779 5777 5775 5774 5772 5771 5769 5767 5765 5761 5760 5760 5758 5758 5756 5749 5746 5751 5755 5758 5759 5760 5761 5761 5760
5827 5823 5818 5811 5807 5805 5802 5798 5794 5791 5789 5786 5785 5783 5782 5780 5780 5779 5777 5775 5773 5772 5770 5769 5768 5765 5763 5761 5760 5759 5756 5753 5751 5749 5746 5746 5748 5752 5757 5758 5758 5759 5759